Wind_Speed
31 32 32 32 33 34 33 34 34 34 33 31 30 30 30 31 32 34 35 37 37 38 39 40 41 42 42 41 40 40 40 41 42 43 44 45 45 46 45 45 45 45 46 46 46 47 46 45 44 42 40 37 35 32 28 25 23 21 20 19 19 19 19 20 21 22 23 24 25 26 26 27 27 27 28 28 29 30 31 32 33 33 33 33 33
30 30 31 31 32 33 32 32 33 33 33 32 31 29 27 26 28 30 31 33 34 34 35 36 38 39 39 39 38 37 37 38 39 39 40 40 41 42 42 42 42 42 42 42 42 43 44 44 43 43 42 41 39 37 35 34 32 31 30 30 29 29 30 31 32 32 33 33 33 33 33 34 34 34 34 35 35 35 35 36 36 36 36 36 36
29 29 29 29 30 30 30 30 30 31 32 32 32 31 28 25 24 27 28 29 30 31 32 33 35 36 37 36 35 34 34 35 36 37 37 38 38 38 38 38 38 39 39 39 39 39 39 39 39 40 40 39 39 37 36 34 34 33 33 33 33 33 34 34 35 35 35 35 35 35 36 36 36 35 35 35 35 35 35 35 35 35 35 35 36
27 27 27 27 28 28 28 28 29 30 31 31 30 31 32 27 23 23 25 25 27 27 29 30 32 35 35 34 33 32 31 32 33 34 35 35 36 36 36 35 35 35 35 36 36 37 37 36 36 36 36 36 36 36 35 34 32 32 32 32 33 33 33 33 33 33 34 34 34 34 34 34 33 33 33 32 32 31 31 31 31 31 32 32 32
26 26 25 25 26 26 26 26 27 29 30 31 31 31 34 31 25 22 22 23 24 25 26 28 31 33 33 33 32 31 30 30 30 31 31 32 33 34 35 35 34 34 34 34 34 34 34 34 34 34 33 33 33 33 32 32 31 30 30 30 30 31 31 31 31 31 31 31 31 31 31 31 30 30 30 29 28 28 28 28 28 28 28 29 29
24 24 23 24 24 25 25 25 26 28 30 31 31 32 34 33 28 23 21 21 22 23 24 27 30 32 33 33 33 33 32 31 30 30 30 30 30 31 33 33 34 34 34 34 34 33 32 32 32 31 31 31 31 31 31 30 29 28 28 27 27 27 27 28 28 28 29 29 29 29 29 28 28 28 28 28 27 27 27 27 26 26 26 27 28
21 22 22 22 23 23 23 23 24 26 28 30 31 32 33 33 30 24 21 20 20 21 23 26 29 30 32 34 35 35 35 35 34 33 33 31 31 31 31 31 31 32 33 33 33 33 32 32 32 31 30 30 30 30 30 29 28 28 27 26 26 26 26 26 26 26 27 27 27 26 26 27 27 27 27 27 27 27 27 26 26 26 27 28 29
19 20 20 21 21 21 22 22 23 25 27 29 31 31 31 32 31 26 22 20 20 20 23 25 27 29 31 33 34 35 35 35 35 36 35 34 33 33 33 32 32 32 32 32 31 31 31 31 31 31 30 29 29 29 28 28 28 27 26 25 25 25 25 24 25 25 25 25 25 25 25 26 26 25 25 26 26 26 26 27 28 29 31 32 33
17 18 18 19 19 20 20 21 22 24 26 28 29 30 30 30 31 29 26 23 21 22 23 25 27 28 29 31 32 33 33 33 34 34 35 34 34 34 34 34 34 33 33 32 32 31 31 30 30 30 30 29 28 28 27 27 26 26 25 24 23 23 23 22 22 22 22 23 24 24 25 25 25 24 25 25 26 27 28 29 31 33 34 35 36
16 16 17 17 18 18 19 19 21 23 25 27 28 28 29 28 29 29 28 26 24 23 24 25 26 27 28 29 30 30 30 30 31 32 32 32 32 32 32 33 33 33 33 32 32 32 31 31 30 31 30 29 28 28 27 26 25 24 23 22 22 21 20 19 19 18 19 20 21 23 24 24 24 25 26 27 28 30 31 32 33 34 36 36 37
14 15 15 16 16 17 17 18 20 22 24 25 26 27 27 27 27 28 28 27 26 25 26 26 27 27 28 28 29 29 29 30 30 30 30 30 30 30 30 31 31 31 31 31 31 31 30 30 30 30 30 29 29 28 27 26 25 23 22 21 20 19 18 17 16 16 16 17 19 20 22 22 24 25 27 29 30 31 32 33 34 35 36 36 37
12 13 13 14 15 16 16 17 19 21 23 24 25 25 26 26 26 27 27 27 27 27 27 27 28 28 28 29 29 29 30 30 30 30 29 29 29 29 29 29 29 29 29 29 29 29 29 29 29 29 28 28 28 27 27 26 25 24 23 21 20 18 17 16 16 15 16 16 17 18 20 21 23 25 27 28 29 30 31 33 33 35 36 36 37
11 11 12 12 13 14 15 16 18 20 21 22 23 23 24 24 24 25 26 26 27 27 27 28 28 28 28 28 29 29 29 29 29 29 29 29 30 29 29 29 28 28 27 28 28 28 28 28 28 28 28 27 26 26 26 26 25 24 23 22 21 19 17 16 15 15 16 16 17 18 19 21 22 24 25 26 27 29 30 31 33 34 35 36 37
9 9 10 11 12 13 14 15 16 18 19 20 20 21 21 22 22 24 25 26 26 27 27 27 28 27 28 28 28 29 29 28 28 28 28 29 29 29 29 28 28 27 27 27 28 28 28 28 28 28 28 27 26 25 25 25 25 24 23 22 21 20 19 17 16 15 16 16 16 17 18 20 21 23 24 25 26 27 29 30 31 33 34 35 37
8 9 9 9 10 11 12 13 15 16 17 17 18 18 19 19 20 22 24 25 26 26 26 27 27 27 27 28 28 28 28 27 27 27 28 29 29 28 28 28 28 28 28 29 29 29 29 28 28 28 28 27 26 25 24 24 24 23 23 22 21 20 19 19 17 16 15 15 16 16 17 18 20 22 23 25 26 27 28 30 31 32 34 35 37
7 7 8 8 8 10 11 12 13 14 14 15 15 16 17 18 19 20 22 23 24 24 25 25 25 26 27 27 27 27 27 28 28 28 28 28 28 28 28 28 29 29 30 31 31 30 30 30 29 29 28 27 26 25 24 23 23 23 22 21 21 19 18 18 18 17 15 14 15 15 16 17 19 21 23 24 25 27 28 30 31 32 34 35 37
6 6 6 6 7 9 10 11 11 12 12 13 14 15 16 17 18 19 20 21 21 22 23 23 24 25 25 26 27 27 27 27 27 28 28 28 28 29 29 30 30 31 32 32 32 32 31 31 31 30 29 27 26 25 24 23 22 22 22 21 20 19 18 17 16 16 15 14 14 14 15 17 19 21 22 24 25 27 28 30 31 33 34 36 37
5 5 5 5 6 7 8 9 9 10 11 12 13 14 15 16 16 17 18 19 20 21 22 23 24 24 25 26 26 26 26 26 26 27 27 28 29 30 31 31 33 33 34 34 34 34 33 33 32 30 28 27 25 24 23 22 21 21 21 20 19 18 17 16 15 15 14 13 13 14 15 16 18 20 21 23 25 26 28 29 31 33 34 36 38
4 4 4 4 5 6 6 7 8 9 10 11 12 13 14 15 15 16 17 18 19 20 22 23 24 25 25 26 26 26 26 26 26 26 27 28 29 31 32 33 34 35 36 36 36 36 35 34 32 30 28 26 24 23 22 21 20 20 19 19 18 17 16 14 13 13 12 11 12 13 14 15 16 18 20 22 24 25 27 28 30 32 34 36 38
4 4 4 4 4 4 4 5 6 8 9 10 11 12 13 14 14 15 16 17 18 20 21 23 24 25 26 26 27 27 27 27 27 27 27 28 29 31 32 34 35 36 37 38 38 37 35 33 31 29 27 25 24 23 22 21 19 19 18 18 17 16 15 13 11 11 11 10 11 12 12 13 15 17 19 21 22 24 26 28 30 32 34 36 38
5 5 4 4 4 3 3 3 4 6 7 8 9 10 12 13 14 15 15 16 18 19 21 22 23 25 26 27 28 28 28 28 28 28 28 29 30 31 33 35 36 37 38 39 38 36 34 32 30 28 27 26 24 23 22 21 20 19 18 17 16 15 14 12 9 9 9 9 9 10 10 11 13 15 17 19 21 23 25 28 30 32 34 36 39
6 6 6 5 4 4 3 2 1 3 5 7 8 9 10 12 13 13 15 16 17 18 20 21 22 24 25 27 28 29 30 29 29 29 29 30 32 33 35 37 38 39 39 39 37 35 33 31 29 28 28 27 26 25 24 23 22 20 19 17 16 14 13 11 9 7 8 8 8 8 8 10 12 13 15 17 20 23 26 28 30 32 34 37 39
8 8 7 6 5 5 5 4 2 1 3 5 7 8 9 11 12 13 13 15 16 17 18 20 21 23 25 27 28 30 30 30 30 30 30 31 33 35 37 39 40 40 40 38 36 34 33 31 30 29 29 28 27 26 25 24 23 21 19 17 15 14 12 11 8 7 7 7 7 6 7 9 10 12 14 16 19 22 25 28 30 32 34 37 39
9 9 8 7 7 6 6 6 5 3 2 4 6 7 8 10 11 12 13 14 15 16 17 18 20 22 25 27 29 30 31 31 31 31 31 33 34 37 40 41 42 41 39 37 36 35 34 32 31 30 30 29 28 27 26 25 24 22 20 18 16 14 12 10 8 7 7 7 6 5 5 7 10 11 13 15 17 21 24 27 30 32 34 36 38
10 10 9 9 8 7 7 7 7 5 4 4 5 6 7 9 10 11 12 13 14 15 16 17 19 22 24 26 28 30 31 32 32 32 32 34 36 39 41 42 42 41 38 37 36 35 34 33 32 31 30 29 28 27 26 25 24 23 21 19 17 15 13 11 9 7 7 6 5 3 4 6 9 10 12 14 17 20 23 26 29 31 33 35 37
11 11 10 10 9 9 9 8 8 7 6 5 5 5 6 8 9 10 11 11 12 13 14 16 18 21 24 26 28 30 31 32 33 33 34 35 37 40 42 43 41 39 37 36 35 34 33 32 32 32 31 30 29 27 26 24 23 22 21 19 17 16 14 12 9 7 7 6 4 3 4 6 8 10 11 14 17 20 22 25 27 29 32 34 37
12 12 11 10 10 10 10 9 9 8 7 7 6 6 7 8 9 9 10 11 11 12 13 15 17 20 24 26 28 30 31 32 33 34 35 36 39 41 43 42 40 37 36 35 34 32 32 32 33 33 33 33 33 31 28 25 23 22 21 19 17 16 14 12 10 7 7 6 5 4 4 6 8 10 12 14 17 19 22 24 26 29 31 34 37
13 13 12 12 11 11 11 10 9 9 8 8 8 8 9 9 10 10 10 11 11 11 13 15 17 20 23 26 28 29 31 32 33 35 36 37 40 42 43 41 38 35 34 33 33 32 33 34 35 36 36 37 38 36 33 29 25 23 21 19 17 16 14 13 10 7 6 6 6 5 6 7 10 11 13 15 17 19 22 24 27 29 32 36 39
15 14 14 13 12 12 11 10 9 9 9 9 9 10 10 11 11 11 11 11 12 12 13 15 17 20 23 25 27 29 31 32 34 35 36 38 40 42 42 38 35 34 33 33 33 34 35 36 37 38 38 39 40 39 36 33 29 24 21 19 17 16 14 12 10 6 5 6 6 6 6 8 10 12 14 16 18 21 23 26 28 31 33 36 38
16 15 15 14 14 13 12 11 10 10 10 10 11 11 12 12 13 12 12 12 13 14 15 16 18 21 23 26 27 29 31 32 34 35 36 38 40 42 39 36 34 33 33 33 34 35 36 37 38 39 38 38 38 37 36 36 33 27 23 20 17 15 13 10 7 3 4 6 5 5 6 9 11 13 15 18 20 24 26 27 29 31 33 36 39
17 17 16 15 15 14 13 12 12 11 11 11 11 12 12 13 13 13 14 14 14 15 16 18 19 21 24 26 28 29 31 32 33 35 36 38 40 40 37 34 33 32 32 33 35 36 36 37 38 39 38 37 37 36 35 35 35 31 26 22 19 16 13 9 5 1 5 6 3 4 7 10 13 15 17 20 23 25 27 28 29 31 34 37 40
19 18 18 17 16 15 15 13 13 12 11 11 11 11 12 12 13 14 15 15 16 16 18 19 20 22 24 26 28 29 31 32 33 35 36 38 40 38 34 32 31 31 32 33 34 35 35 35 36 38 38 38 36 35 34 34 35 33 29 26 23 19 14 9 4 5 7 5 1 5 9 12 14 17 19 22 24 25 26 28 30 33 35 37 39
21 20 19 18 17 17 16 15 13 12 12 12 11 11 12 13 14 15 16 17 18 19 20 20 21 22 24 26 27 28 30 31 33 35 36 37 39 36 32 30 30 30 31 33 34 34 34 34 35 36 37 37 36 34 32 32 33 33 32 30 27 22 16 10 6 8 8 4 2 6 10 13 15 17 20 22 24 25 27 30 32 34 36 37 39
22 21 21 20 19 18 17 16 14 13 13 13 12 13 14 14 16 17 18 19 20 20 21 21 21 22 24 25 26 27 29 31 33 34 35 37 37 33 29 28 28 28 30 32 32 33 33 34 35 36 36 36 35 32 31 30 31 32 33 32 30 25 19 11 8 9 7 4 4 7 10 12 15 19 22 24 27 29 30 32 33 34 36 37 39
24 23 22 21 20 19 18 17 15 15 14 14 14 14 15 16 17 17 18 19 19 19 20 20 20 22 23 25 26 27 28 30 32 33 35 37 35 31 28 27 26 27 28 29 31 31 32 33 34 36 36 36 35 32 30 30 31 31 32 32 31 27 20 13 10 9 7 5 6 8 9 11 15 20 23 25 29 31 32 33 34 34 35 36 38
26 24 23 23 22 21 19 18 17 16 16 16 16 16 16 16 17 17 18 18 18 19 19 20 21 22 23 24 25 27 28 30 32 33 34 36 34 29 26 25 25 26 27 28 29 30 31 32 34 36 37 37 35 32 29 30 31 32 32 31 31 27 21 15 11 8 6 6 8 9 9 11 14 18 22 26 29 31 32 34 34 34 35 36 37
27 26 25 24 23 22 21 20 19 18 18 17 17 17 17 17 17 17 17 18 19 20 20 21 22 23 24 24 25 27 29 30 32 33 34 35 32 27 24 23 23 24 25 26 27 28 29 31 32 35 38 37 34 31 29 29 31 33 33 32 30 26 21 17 13 9 6 8 11 12 12 11 13 18 23 28 31 33 34 35 36 37 36 36 36
29 28 27 26 25 24 23 22 21 20 19 19 19 19 19 18 18 18 18 19 20 21 22 22 23 23 24 24 25 27 29 30 31 33 34 34 30 26 23 22 22 23 24 25 26 27 28 30 31 34 36 37 35 31 28 27 29 31 32 32 30 26 22 18 15 13 11 11 13 15 17 17 18 22 27 31 34 36 36 36 37 38 36 35 34
31 30 29 27 27 26 25 24 23 22 21 21 21 20 20 19 19 19 20 21 22 22 23 23 24 24 25 25 26 27 28 30 31 32 34 33 28 24 23 22 22 22 23 24 25 26 27 29 30 32 34 36 35 33 30 28 27 28 29 29 29 27 23 19 17 16 15 15 15 16 19 22 24 26 29 31 34 36 37 36 36 35 34 32 29
33 32 30 30 29 28 27 26 25 24 23 23 22 21 21 20 20 20 21 21 22 23 24 24 25 25 25 26 26 27 28 30 31 32 32 31 26 22 21 20 21 21 22 23 24 25 26 27 29 30 31 33 33 33 32 30 28 28 28 27 27 26 23 21 20 20 20 19 18 18 20 24 26 28 29 32 35 37 36 34 33 32 31 28 25
35 33 32 32 31 30 29 28 27 26 25 24 23 22 21 21 21 21 21 22 23 24 24 25 26 26 26 26 27 28 29 30 31 31 31 29 24 20 18 18 18 18 19 22 23 23 23 25 26 26 28 30 31 30 30 30 29 29 28 28 27 26 25 22 20 22 25 26 25 23 24 27 28 29 32 36 38 38 35 33 32 32 30 27 24
36 35 35 35 34 32 31 30 30 29 28 26 25 23 22 22 22 22 22 22 23 24 25 26 26 27 27 27 28 28 29 30 31 31 31 28 23 19 17 16 15 16 17 20 21 22 22 22 22 22 25 29 29 29 29 28 28 28 29 29 29 30 30 27 22 21 21 24 26 27 28 32 33 34 36 39 39 37 34 32 31 31 30 28 27
38 38 38 38 36 34 33 33 32 31 30 28 26 25 24 24 24 23 23 23 24 25 26 27 27 27 28 28 28 29 29 30 31 31 31 28 23 20 17 15 15 15 16 18 20 21 21 20 19 20 24 28 28 29 31 31 31 30 29 30 31 32 33 30 25 20 18 21 27 30 29 30 36 40 40 40 40 38 37 36 35 34 32 30 29
40 40 40 40 38 37 36 36 35 34 33 31 29 28 27 27 26 25 25 25 25 27 27 28 28 28 28 28 28 29 29 30 31 31 31 29 24 21 18 16 15 15 16 18 20 21 21 20 17 18 23 27 28 30 33 33 33 33 31 31 33 32 30 28 27 27 29 32 35 38 36 33 36 41 42 40 40 42 43 44 42 41 39 36 34
41 42 42 41 40 40 39 39 38 36 35 34 33 31 30 30 29 29 28 27 28 28 29 29 29 29 29 28 28 29 29 30 30 31 31 29 25 22 19 17 16 16 16 17 19 20 21 20 17 19 23 26 29 33 33 31 33 33 30 31 33 30 29 33 37 39 41 40 37 37 41 41 40 43 44 43 43 45 47 47 45 44 44 42 39
43 44 43 42 42 42 42 41 40 39 38 37 36 34 33 33 33 32 31 30 30 31 31 31 30 30 30 29 28 29 30 30 30 31 30 29 25 22 20 19 18 17 16 16 18 20 21 20 20 21 24 26 31 35 33 31 33 29 26 31 35 31 33 42 48 49 49 48 45 43 45 47 46 44 44 44 45 47 48 47 44 41 39 38 39
45 45 44 44 43 43 43 43 42 42 41 39 38 37 35 35 35 35 34 33 33 33 33 32 32 31 31 30 29 29 30 30 30 31 31 29 26 23 22 21 20 20 17 16 18 21 22 21 21 24 27 30 34 35 33 34 32 26 28 38 39 33 38 46 51 53 53 52 48 45 44 45 45 43 43 43 44 45 44 42 40 38 36 35 36
46 46 45 45 45 44 44 44 44 44 43 41 39 38 37 37 37 36 36 35 35 35 35 34 33 33 32 31 30 30 30 30 30 31 31 29 27 25 24 23 23 23 19 17 18 21 22 23 24 28 32 36 37 35 33 32 28 25 34 44 38 31 38 48 50 51 53 50 44 41 40 42 41 40 41 42 40 39 38 39 40 41 39 37 36
45 46 46 46 45 45 45 45 45 45 44 42 41 39 38 38 38 38 37 37 37 36 36 35 35 34 34 32 31 31 31 30 31 31 31 30 28 27 26 26 26 25 22 20 20 21 23 25 30 33 36 37 36 33 29 25 21 25 37 43 36 32 40 47 48 49 54 55 49 43 42 44 42 40 41 43 42 41 42 44 46 45 43 40 39
46 46 46 46 46 46 46 46 46 46 44 43 42 41 40 39 39 39 39 39 39 38 37 37 37 36 35 34 32 32 31 31 31 31 32 31 29 29 28 27 29 29 26 23 23 24 27 32 36 37 36 37 35 31 26 21 18 25 35 37 32 32 39 43 43 45 50 54 53 49 49 50 49 47 48 49 49 50 49 48 47 47 45 43 42
46 46 46 47 47 47 47 47 47 46 45 44 44 43 42 41 41 42 42 42 42 40 37 38 38 38 37 35 34 33 32 31 32 32 32 31 31 30 29 29 31 31 28 27 29 32 35 37 38 37 36 36 33 28 25 24 22 24 30 33 31 33 37 40 41 42 46 51 53 51 52 54 54 55 56 55 54 55 54 51 48 47 46 45 42
Wind_Direction
88 86 83 81 80 78 76 74 72 71 71 71 72 72 73 74 75 74 73 71 67 62 59 56 55 54 53 53 55 56 57 57 57 57 56 57 56 56 56 55 55 55 53 52 52 52 52 52 52 53 54 55 56 57 58 58 57 56 55 54 54 56 57 60 63 65 67 69 70 71 72 72 71 71 70 69 69 69 69 68 67 66 64 64 61
90 87 84 82 80 78 75 73 71 69 68 68 68 69 70 73 75 75 73 70 66 62 58 55 53 51 49 50 53 55 57 57 58 58 57 57 57 57 57 56 56 56 54 52 51 51 50 50 49 49 49 50 51 53 56 59 62 63 65 68 69 72 74 76 77 78 79 79 79 79 78 77 76 75 74 73 72 71 69 68 66 63 61 60 57
90 87 84 81 79 77 75 73 70 68 67 67 67 66 66 71 76 77 75 71 67 63 58 54 50 47 45 48 52 53 55 57 57 57 57 57 57 57 57 57 57 58 57 55 54 53 52 51 50 50 49 49 50 50 53 56 60 65 68 72 75 77 78 80 81 81 81 81 81 79 78 77 75 74 72 71 68 66 63 61 58 55 52 50 48
89 86 83 80 77 75 74 72 70 68 67 67 68 65 63 69 78 79 77 74 69 64 58 52 47 44 43 47 53 54 54 55 55 56 56 56 56 56 56 56 56 57 57 56 56 55 54 54 53 52 51 51 51 51 52 54 58 63 68 73 76 79 80 81 82 82 82 81 80 78 77 74 72 70 67 64 61 58 55 51 49 46 43 41 40
88 85 81 77 75 74 71 70 69 68 68 67 67 65 61 67 79 82 79 75 70 64 56 49 45 43 44 49 54 56 55 54 54 54 54 54 54 54 55 55 55 55 55 55 54 54 54 55 55 54 53 52 53 53 55 56 58 61 65 71 76 79 81 81 82 81 80 79 77 76 74 71 67 63 59 55 51 48 45 43 40 37 35 34 34
89 84 80 77 74 72 70 68 68 69 69 68 67 65 62 66 77 83 80 75 69 62 53 47 45 44 48 53 55 56 56 55 53 53 53 53 52 52 53 54 54 54 54 53 53 52 51 52 53 53 54 53 53 53 54 56 59 61 64 67 71 74 76 77 78 77 77 75 73 71 68 64 58 53 48 43 41 39 37 34 33 32 31 31 31
88 83 80 77 75 72 69 67 67 68 69 69 67 66 65 67 74 82 80 73 67 58 50 46 46 49 54 56 57 56 56 55 54 54 54 52 51 50 51 51 51 51 51 50 50 49 48 47 48 49 50 50 51 52 52 53 55 58 60 62 63 65 66 68 69 69 69 67 65 62 58 53 47 43 39 36 34 33 33 32 31 31 31 31 30
88 83 78 76 74 70 68 67 67 69 70 70 69 69 69 69 73 78 78 73 65 56 51 50 52 55 57 56 55 55 55 55 55 55 55 53 52 51 51 50 50 49 48 47 46 45 44 43 42 42 43 44 45 47 48 49 50 51 53 55 57 58 57 57 58 58 56 55 52 49 46 42 39 37 35 33 32 32 32 32 32 32 31 29 28
86 81 77 73 70 67 66 66 67 68 70 70 71 71 71 71 73 76 77 74 67 60 57 57 58 57 56 54 53 52 51 51 52 53 53 52 51 50 50 50 49 48 46 45 44 43 42 40 38 37 37 37 37 38 40 42 45 46 46 47 49 51 52 50 49 48 46 43 41 38 35 34 33 33 33 33 31 31 30 29 29 29 28 26 24
85 80 76 71 67 66 65 65 66 68 69 71 71 72 72 72 72 74 75 74 71 67 63 60 58 55 53 52 51 50 48 48 49 49 49 49 48 47 47 48 47 46 44 43 42 41 40 38 37 35 33 32 31 31 32 34 36 39 41 42 43 44 45 45 44 41 37 35 32 29 28 29 31 31 31 30 29 28 27 26 26 26 25 23 22
88 82 77 71 68 66 66 66 67 69 70 71 72 72 72 71 71 71 72 72 70 67 63 60 56 54 53 52 51 50 48 46 46 47 46 46 45 44 44 44 44 43 41 40 38 37 36 34 33 32 30 28 27 26 25 26 27 28 31 35 37 38 37 36 34 32 29 27 25 23 24 26 28 30 29 29 27 26 26 25 24 23 23 22 21
92 86 79 74 70 68 67 68 68 70 71 71 72 71 71 70 69 68 68 67 65 63 61 58 55 53 51 51 51 50 48 46 45 45 45 44 43 42 41 41 41 40 38 36 35 33 31 29 27 26 25 23 22 20 20 20 20 20 21 23 26 28 28 27 25 22 20 19 18 17 18 20 23 26 27 27 26 26 25 24 23 22 22 21 21
98 90 81 75 72 70 69 70 71 72 73 72 72 70 68 66 65 64 64 63 61 59 57 55 53 51 49 47 47 47 46 44 43 42 43 43 42 42 41 40 39 37 36 34 32 29 26 23 21 19 18 17 16 15 14 13 13 14 14 14 15 15 16 17 16 15 14 13 12 11 11 14 17 20 21 22 23 23 23 22 22 22 21 21 20
104 92 84 77 74 72 73 72 73 74 74 73 72 70 67 63 60 59 59 58 57 55 54 52 50 48 47 45 45 45 44 42 39 39 39 40 40 39 39 37 35 33 31 30 28 25 21 18 16 13 11 9 8 8 7 6 7 6 7 8 8 8 7 7 7 8 9 9 7 7 7 9 12 15 17 17 18 18 18 19 19 20 20 20 19
110 98 89 81 76 75 75 74 74 74 74 73 71 69 67 63 59 57 56 54 53 52 51 50 47 45 44 43 42 42 41 39 37 35 36 36 35 34 32 31 29 27 24 22 21 19 16 12 10 8 5 2 1 1 0 360 360 360 360 360 1 2 1 1 1 1 3 5 4 4 3 4 7 11 14 15 15 15 14 15 15 17 18 18 18
120 107 95 87 82 79 77 75 74 72 71 70 69 68 66 64 61 57 54 52 50 48 47 47 45 42 40 39 37 36 36 35 33 32 31 31 29 27 25 24 22 20 17 15 14 12 9 6 4 3 360 357 355 354 354 354 354 353 353 353 353 354 355 355 355 356 357 359 0 0 360 1 4 8 12 14 15 14 13 13 13 15 16 17 17
131 118 106 96 88 84 80 74 71 68 66 64 63 62 62 61 59 56 53 50 47 44 43 42 41 39 36 35 33 32 31 31 29 28 27 25 24 22 19 17 15 13 11 9 7 6 4 2 0 358 355 352 351 349 349 348 348 348 347 347 346 347 348 349 350 351 352 353 355 357 357 359 4 9 13 15 15 14 13 13 13 14 16 16 17
145 135 124 109 98 92 83 73 65 60 57 56 55 54 52 52 50 49 47 45 43 40 37 35 36 35 33 32 30 29 28 27 26 24 23 21 19 17 14 12 10 8 6 3 2 1 359 358 357 355 353 350 348 347 347 346 345 344 343 341 341 340 342 343 343 344 345 347 350 353 356 358 5 10 13 15 15 13 12 12 13 15 17 17 18
167 156 149 132 116 106 93 74 60 53 49 47 47 46 44 42 41 41 39 38 36 34 32 30 31 31 29 28 27 25 24 24 23 21 19 17 15 13 10 7 5 3 1 359 358 357 357 356 355 354 353 351 350 349 347 346 345 342 339 337 335 335 335 337 337 336 336 339 342 348 353 356 3 8 12 13 12 11 11 12 15 17 18 17 17
188 179 177 167 146 134 112 78 57 49 43 41 41 41 39 36 34 34 34 33 30 29 29 28 29 28 27 25 24 22 20 20 19 17 16 14 12 10 6 4 1 359 357 355 355 355 355 356 355 355 354 354 354 353 351 350 348 345 342 338 334 331 331 331 330 326 325 330 335 341 348 354 1 7 9 10 10 10 11 14 17 17 17 17 18
204 200 201 196 181 171 149 96 58 43 36 34 35 35 34 32 31 31 30 29 26 25 27 28 27 26 25 24 22 20 18 17 16 14 13 11 9 7 3 0 358 356 354 353 353 354 356 357 357 356 356 355 355 354 352 351 352 351 348 344 339 334 330 328 324 316 314 320 327 335 343 351 359 5 6 8 10 12 14 15 17 16 16 17 18
212 212 215 216 210 206 198 178 80 38 27 24 25 27 28 30 29 29 27 25 23 23 25 26 25 23 22 22 20 18 16 15 13 11 9 7 6 3 360 357 356 354 353 353 354 356 357 358 358 357 356 355 355 354 352 350 350 352 352 350 346 341 335 329 321 308 302 307 317 329 339 346 355 1 4 10 14 16 17 17 16 16 16 16 17
218 221 225 227 226 225 220 218 221 332 10 11 13 15 19 23 24 23 22 21 20 21 23 24 21 20 19 19 18 16 14 13 11 9 6 4 2 360 357 356 354 353 353 354 356 358 359 359 358 357 355 355 355 354 352 349 349 350 351 351 348 344 339 330 319 300 291 294 305 323 338 344 351 357 3 13 18 19 19 18 16 16 15 15 16
222 227 231 234 235 234 233 233 238 257 320 350 359 5 6 12 15 14 13 13 15 16 18 19 17 15 15 14 13 12 11 9 8 6 4 1 359 357 356 354 353 352 353 356 359 1 1 360 359 357 355 354 354 353 352 350 348 350 351 350 347 344 339 331 316 297 284 284 293 314 337 346 348 351 1 13 18 19 18 17 15 15 14 14 14
226 230 234 239 241 240 242 244 247 255 277 310 335 349 355 359 3 4 3 4 7 10 11 12 10 10 9 9 8 7 6 5 4 2 0 358 357 356 355 353 352 353 355 359 3 4 3 2 1 359 358 356 355 353 352 350 349 349 351 350 346 342 337 328 314 295 278 271 277 298 326 338 340 343 357 11 16 16 15 13 12 11 10 10 11
230 232 236 240 244 246 248 250 253 258 266 284 307 327 337 343 347 351 352 354 358 1 2 3 3 2 3 2 2 2 1 1 0 359 357 356 355 355 354 352 352 355 359 2 5 6 5 4 4 4 3 1 358 355 352 350 350 350 350 350 346 340 333 325 312 290 265 254 256 274 307 324 328 334 351 6 11 11 10 8 6 5 4 5 6
236 235 236 240 245 249 251 254 257 261 267 276 290 305 314 324 332 337 340 342 347 351 352 353 354 355 355 355 356 356 356 356 356 355 354 353 354 354 353 353 355 358 1 4 6 6 5 6 8 9 8 5 3 360 356 353 351 350 349 349 345 339 333 327 315 288 252 233 237 256 288 307 317 330 348 1 5 5 4 2 360 358 358 358 360
240 238 237 238 242 248 253 257 260 265 270 276 284 293 301 311 320 324 327 330 335 338 341 343 345 347 349 350 350 351 351 351 352 352 351 352 353 353 352 354 357 360 2 4 5 5 6 8 9 9 9 7 5 5 3 359 355 351 349 348 344 340 336 331 322 294 245 217 228 253 280 301 315 331 346 354 357 359 358 357 355 354 354 355 357
238 239 239 237 238 243 251 258 264 269 274 278 284 291 297 306 312 316 318 320 325 328 331 334 337 341 344 344 345 346 346 347 348 349 350 351 351 352 353 356 359 1 2 3 4 6 7 8 8 8 8 8 8 8 8 6 2 356 351 348 345 343 341 340 331 302 232 204 226 259 283 302 317 330 340 346 351 353 354 354 354 355 357 358 0
234 236 237 236 235 238 245 255 264 271 277 283 288 294 300 306 311 313 315 316 319 321 325 328 333 337 339 340 341 342 342 343 345 347 348 349 350 351 354 358 0 1 2 3 5 7 8 7 6 5 7 9 10 11 12 11 8 4 359 355 352 350 350 353 345 312 193 187 223 272 300 312 323 332 338 344 349 353 356 357 359 1 4 4 4
232 233 234 234 234 236 241 250 261 270 278 285 291 298 304 310 313 314 314 315 316 318 322 326 329 334 335 335 336 338 338 340 342 345 347 348 350 352 355 359 1 1 2 4 6 7 8 7 4 3 5 8 11 11 13 13 11 10 8 5 1 359 359 4 11 85 150 162 214 296 319 327 334 339 343 349 355 0 4 5 6 8 8 6 4
231 231 231 232 233 236 241 248 257 266 275 283 291 299 306 311 314 313 314 315 317 319 321 324 327 329 329 330 332 334 335 337 340 343 345 347 349 352 356 0 0 1 2 5 6 7 7 5 2 360 0 4 7 10 13 14 12 12 13 12 7 5 6 13 46 111 131 145 221 323 336 343 347 349 353 358 4 9 11 10 10 9 7 5 4
232 231 230 232 233 237 242 248 255 262 270 279 287 296 304 308 311 312 314 316 319 320 321 323 325 325 325 326 329 330 332 335 338 342 344 346 349 353 358 1 0 1 3 5 6 6 5 4 1 357 356 358 3 6 11 14 14 12 14 15 13 9 11 26 69 103 115 117 10 353 358 0 360 0 3 7 8 10 9 8 8 7 5 4 3
233 232 231 232 235 240 245 249 254 262 270 279 287 295 301 305 309 311 314 317 319 321 322 324 324 323 323 325 327 328 330 333 337 340 343 346 349 354 359 0 0 2 4 4 4 4 4 2 360 357 356 357 0 5 10 14 17 16 15 18 19 14 15 32 69 92 96 73 20 14 17 15 10 8 7 6 4 3 2 2 2 3 3 2 1
233 233 232 234 237 242 247 250 255 262 270 279 286 293 298 303 306 310 313 316 319 321 324 325 324 322 324 325 326 327 329 333 337 339 341 345 349 354 359 359 360 3 4 3 2 2 2 2 1 359 358 359 0 5 11 14 18 20 19 21 24 20 17 26 51 72 75 46 17 18 21 18 12 8 3 359 357 355 355 354 355 357 358 359 359
234 234 234 235 238 242 246 250 255 261 268 276 284 290 295 299 302 306 311 316 318 320 322 323 321 322 324 325 325 326 329 332 335 337 341 345 349 354 358 358 359 2 3 1 1 2 2 3 3 2 2 3 2 6 13 15 16 20 21 24 28 26 18 14 27 47 45 12 360 3 5 6 4 360 354 350 348 347 347 346 347 349 351 352 353
235 236 236 237 240 243 246 251 255 260 267 274 281 286 290 293 297 303 309 315 316 318 319 318 319 321 323 323 324 325 328 332 334 336 340 345 349 353 356 356 359 1 0 360 0 2 2 4 6 6 6 8 9 10 14 15 14 17 19 20 26 29 22 9 4 8 2 346 341 341 340 343 346 346 343 341 340 339 339 338 338 340 343 345 347
236 236 238 239 241 244 247 251 256 260 267 273 279 283 285 288 294 300 307 312 314 315 316 315 316 318 320 321 322 324 327 330 332 335 340 345 348 351 352 354 357 359 357 358 359 1 2 5 9 11 11 12 15 17 17 16 12 12 14 14 16 22 22 10 354 342 333 329 328 328 326 325 328 332 335 335 334 333 332 330 330 332 336 340 342
237 237 238 240 242 245 248 252 257 261 267 273 277 280 280 284 291 297 302 308 312 313 314 314 314 315 317 318 320 323 326 328 329 334 340 344 347 348 348 350 355 356 355 354 357 0 2 6 10 15 17 17 19 21 20 18 14 9 9 9 7 8 11 9 358 340 326 317 316 319 323 325 327 328 330 331 329 328 327 326 326 327 330 335 337
240 240 240 242 244 246 249 252 257 262 267 272 276 277 277 281 288 293 298 303 308 310 312 312 312 313 314 315 318 321 323 325 327 333 339 343 344 343 344 347 350 353 352 350 353 358 1 6 11 16 21 21 20 22 20 18 16 10 6 3 360 358 357 358 356 347 336 325 319 320 326 332 331 328 328 330 328 326 325 325 327 329 330 332 333
242 243 244 244 246 248 250 253 256 261 266 272 276 276 275 278 284 289 293 299 304 307 308 309 309 310 311 313 315 318 321 322 325 331 337 341 340 337 339 342 344 348 348 344 347 353 359 7 11 18 25 23 19 21 19 15 13 9 4 1 355 350 346 344 348 348 342 336 332 331 333 336 333 328 328 330 330 328 327 327 328 331 334 334 331
244 245 246 247 249 250 252 254 257 260 264 270 274 275 274 275 280 285 290 296 300 303 305 306 307 307 308 310 313 315 317 319 323 329 335 337 336 331 333 337 336 340 341 338 342 349 356 5 12 18 22 21 18 17 15 10 4 359 356 355 354 352 345 338 338 341 343 343 340 335 333 332 329 326 326 329 331 331 331 330 329 328 331 333 330
245 246 247 248 250 252 253 254 257 259 263 267 272 273 271 272 275 280 286 293 297 300 302 303 304 305 305 307 310 312 314 317 321 327 332 333 330 326 327 330 329 331 336 335 337 343 349 359 10 12 11 15 16 11 4 358 354 350 346 344 346 348 343 339 339 342 342 340 333 325 322 322 322 321 320 322 325 324 322 324 325 324 323 323 323
246 247 248 249 251 253 254 255 257 260 262 266 268 270 269 269 272 277 283 289 294 297 299 300 302 303 302 304 306 308 311 315 319 324 328 329 325 320 320 323 322 324 330 333 334 337 341 350 2 6 4 6 7 2 358 354 349 348 346 343 344 345 344 342 341 334 325 319 314 313 313 314 316 316 313 314 317 314 311 313 314 314 313 312 312
246 247 248 250 251 252 254 256 258 259 262 264 266 268 268 269 271 274 280 286 291 294 296 298 299 300 300 301 303 305 308 311 316 321 325 324 320 314 313 316 315 315 323 331 331 331 334 340 351 357 357 357 354 352 354 352 347 345 348 353 357 356 347 337 329 322 315 307 302 308 313 313 315 314 309 306 308 308 307 306 304 304 306 304 303
245 246 247 249 251 253 254 256 258 259 260 262 265 267 268 269 270 273 277 282 287 290 293 295 296 297 298 298 300 302 305 308 313 318 321 320 315 308 306 308 308 306 311 323 326 326 329 334 340 344 345 347 345 343 345 346 344 345 350 353 351 341 327 324 323 320 317 312 308 309 310 310 314 315 309 306 307 308 310 310 308 309 310 305 301
245 246 247 249 250 252 254 256 258 259 260 262 264 266 267 268 269 271 275 279 283 287 290 292 294 295 296 296 297 299 302 306 311 315 317 316 311 304 300 301 301 297 298 311 319 320 321 324 329 334 336 337 337 337 339 340 340 344 348 343 334 319 315 323 326 325 323 322 320 319 312 308 312 314 311 311 312 312 313 314 312 313 314 309 305
248 249 249 250 251 252 254 256 258 259 260 262 263 264 266 267 269 271 273 277 280 283 287 290 291 292 293 293 294 296 298 303 308 311 313 312 307 301 295 295 298 294 291 300 310 311 312 315 321 327 328 329 330 331 335 337 339 343 340 332 323 315 320 328 331 328 327 327 329 328 320 313 314 315 314 314 314 313 313 314 313 312 312 309 307
252 252 252 253 254 255 255 256 257 258 260 260 262 263 264 266 269 271 273 275 278 280 284 287 289 289 290 291 291 292 295 300 304 308 309 308 304 299 293 293 297 295 291 296 303 305 305 309 316 320 321 323 326 329 333 336 340 338 329 323 322 324 326 329 331 331 329 327 326 327 323 318 316 314 313 313 311 307 307 309 310 309 308 306 305
252 253 254 256 256 256 257 257 258 259 259 260 261 262 263 266 268 271 273 274 275 277 281 285 286 287 287 288 288 289 292 297 301 305 306 304 301 297 293 293 297 296 294 297 301 301 303 308 314 317 318 320 322 325 328 331 330 324 318 317 320 322 324 327 330 331 330 326 323 323 323 321 318 312 310 309 308 305 305 306 306 304 303 304 304
252 253 255 256 256 257 258 258 259 260 260 260 260 261 262 265 268 270 272 273 273 275 279 282 283 284 285 285 286 288 290 294 298 302 303 301 298 295 292 294 296 295 295 300 303 304 308 312 314 315 316 319 319 319 323 324 318 312 310 311 312 312 316 320 322 326 327 324 321 321 320 319 318 314 311 311 310 309 309 308 305 302 301 302 302
Height
10984 10983 10983 10983 10981 10981 10980 10980 10979 10978 10977 10976 10975 10975 10974 10974 10973 10972 10972 10971 10970 10969 10968 10967 10967 10966 10965 10964 10963 10962 10961 10960 10959 10958 10957 10956 10954 10953 10953 10952 10951 10950 10949 10949 10948 10947 10945 10944 10943 10942 10941 10940 10939 10938 10937 10936 10935 10934 10933 10932 10931 10931 10930 10930 10929 10929 10928 10927 10926 10926 10925 10924 10923 10923 10922 10921 10920 10920 10919 10918 10917 10916 10915 10914 10912
10986 10985 10985 10985 10983 10983 10983 10982 10981 10980 10979 10978 10978 10977 10977 10976 10976 10975 10974 10974 10973 10972 10971 10971 10970 10970 10969 10968 10966 10966 10965 10964 10963 10962 10961 10960 10958 10957 10956 10956 10955 10954 10953 10953 10952 10951 10949 10948 10947 10946 10945 10943 10942 10941 10939 10938 10937 10936 10935 10935 10934 10933 10933 10932 10932 10931 10930 10930 10929 10928 10927 10926 10926 10925 10924 10923 10922 10921 10920 10919 10918 10917 10915 10914 10912
10987 10987 10987 10987 10985 10985 10985 10985 10984 10983 10982 10981 10980 10979 10979 10978 10978 10978 10977 10977 10976 10975 10975 10974 10974 10973 10972 10971 10969 10969 10968 10967 10966 10965 10964 10963 10962 10961 10960 10960 10959 10958 10957 10957 10956 10955 10953 10952 10951 10950 10949 10948 10946 10945 10943 10942 10941 10940 10939 10938 10937 10937 10936 10935 10935 10934 10933 10932 10932 10931 10930 10929 10928 10927 10926 10925 10924 10923 10922 10920 10919 10917 10916 10914 10913
10989 10989 10989 10989 10988 10987 10987 10987 10986 10985 10984 10983 10983 10982 10981 10980 10980 10980 10980 10980 10979 10978 10978 10977 10977 10976 10975 10973 10972 10972 10971 10970 10969 10968 10967 10967 10966 10965 10963 10963 10962 10961 10960 10960 10959 10958 10957 10957 10956 10955 10954 10952 10951 10949 10948 10946 10945 10944 10942 10941 10941 10940 10939 10939 10938 10937 10936 10935 10934 10933 10932 10931 10930 10929 10928 10927 10925 10924 10923 10921 10919 10918 10916 10915 10913
10991 10991 10991 10991 10990 10990 10990 10989 10988 10987 10986 10985 10985 10984 10983 10982 10982 10983 10983 10983 10982 10981 10980 10980 10980 10979 10977 10976 10975 10974 10973 10972 10972 10971 10970 10969 10969 10968 10966 10966 10965 10964 10963 10962 10962 10961 10961 10960 10959 10958 10957 10956 10955 10953 10952 10950 10949 10948 10946 10945 10944 10943 10942 10941 10940 10939 10938 10937 10936 10935 10934 10933 10932 10931 10930 10928 10927 10926 10924 10922 10920 10918 10917 10915 10913
10993 10993 10993 10993 10992 10992 10992 10991 10990 10989 10988 10988 10987 10986 10985 10985 10985 10985 10985 10985 10984 10983 10983 10983 10983 10982 10980 10979 10978 10978 10976 10975 10974 10973 10972 10972 10971 10970 10969 10968 10967 10966 10965 10965 10964 10963 10963 10962 10961 10961 10960 10959 10958 10957 10955 10954 10953 10951 10950 10949 10948 10947 10946 10944 10943 10942 10941 10940 10939 10938 10937 10935 10934 10933 10931 10930 10928 10927 10925 10923 10921 10919 10917 10915 10912
10995 10995 10995 10995 10994 10994 10994 10993 10992 10991 10990 10990 10989 10989 10988 10988 10988 10988 10987 10987 10987 10986 10986 10986 10985 10984 10983 10983 10982 10980 10979 10978 10977 10976 10975 10974 10974 10973 10971 10970 10969 10968 10967 10967 10966 10965 10965 10964 10964 10963 10962 10961 10960 10959 10958 10957 10956 10954 10953 10952 10951 10950 10949 10947 10946 10945 10944 10943 10942 10940 10939 10937 10936 10934 10933 10931 10930 10928 10926 10925 10923 10921 10918 10915 10912
10997 10996 10996 10996 10996 10996 10996 10995 10995 10994 10993 10992 10992 10991 10991 10991 10990 10990 10990 10990 10989 10989 10989 10989 10988 10987 10987 10986 10984 10983 10982 10981 10980 10979 10977 10977 10976 10975 10973 10972 10971 10970 10969 10969 10968 10967 10967 10966 10965 10964 10963 10963 10962 10961 10960 10959 10958 10957 10955 10954 10953 10952 10951 10950 10949 10948 10947 10946 10944 10943 10941 10939 10938 10936 10934 10933 10931 10929 10928 10926 10924 10921 10918 10915 10913
10998 10998 10998 10998 10998 10998 10998 10997 10997 10996 10995 10994 10994 10994 10994 10994 10993 10993 10993 10992 10992 10992 10992 10991 10991 10990 10989 10988 10987 10986 10985 10984 10983 10981 10980 10979 10979 10977 10976 10974 10973 10972 10971 10971 10970 10969 10968 10968 10967 10966 10965 10964 10963 10962 10961 10960 10959 10958 10957 10956 10955 10954 10953 10952 10951 10950 10949 10948 10946 10945 10943 10941 10939 10938 10936 10934 10932 10930 10928 10926 10923 10920 10918 10915 10912
11000 10999 10999 10999 10999 10999 10999 10999 10999 10998 10997 10996 10996 10996 10997 10997 10996 10995 10995 10995 10995 10995 10994 10993 10993 10992 10991 10990 10989 10988 10988 10987 10985 10983 10982 10982 10981 10979 10978 10977 10975 10974 10974 10973 10972 10971 10970 10969 10968 10967 10966 10965 10964 10963 10962 10961 10960 10959 10958 10957 10956 10955 10954 10953 10952 10951 10950 10949 10947 10946 10944 10943 10941 10939 10937 10935 10933 10931 10928 10926 10923 10920 10918 10915 10912
11001 11001 11001 11001 11000 11000 11000 11001 11000 10999 10999 10998 10998 10999 10999 10999 10999 10998 10998 10997 10997 10996 10996 10995 10994 10993 10993 10992 10991 10990 10990 10988 10987 10986 10985 10984 10983 10981 10980 10979 10978 10977 10976 10975 10974 10973 10972 10971 10970 10969 10968 10966 10965 10964 10963 10962 10961 10960 10959 10958 10957 10956 10955 10954 10953 10952 10950 10949 10948 10946 10945 10943 10941 10939 10937 10935 10933 10931 10929 10927 10924 10921 10919 10916 10913
11002 11002 11002 11002 11002 11002 11002 11002 11002 11001 11001 11001 11001 11001 11001 11001 11001 11001 11000 10999 10999 10998 10997 10997 10996 10995 10995 10994 10993 10992 10991 10990 10989 10988 10987 10986 10985 10983 10982 10981 10980 10979 10978 10977 10976 10975 10974 10973 10971 10970 10969 10967 10966 10965 10964 10962 10961 10960 10959 10958 10957 10956 10955 10954 10953 10952 10951 10949 10948 10946 10945 10943 10941 10939 10937 10935 10933 10932 10930 10927 10925 10922 10919 10916 10913
11003 11003 11003 11003 11003 11003 11003 11003 11003 11003 11003 11003 11003 11003 11003 11003 11003 11003 11002 11001 11000 11000 10999 10998 10998 10997 10997 10996 10995 10993 10992 10992 10991 10990 10989 10988 10987 10985 10984 10983 10982 10981 10980 10979 10977 10976 10975 10974 10972 10971 10969 10968 10967 10965 10964 10963 10961 10960 10959 10958 10957 10956 10955 10954 10953 10951 10950 10949 10947 10946 10944 10943 10941 10939 10937 10935 10934 10932 10930 10927 10925 10922 10919 10916 10913
11005 11004 11004 11004 11004 11004 11004 11004 11004 11004 11005 11005 11005 11005 11005 11005 11005 11004 11004 11003 11002 11001 11001 11000 11000 10999 10998 10997 10996 10995 10994 10994 10993 10992 10991 10990 10988 10987 10986 10985 10984 10983 10981 10980 10978 10977 10976 10974 10973 10971 10969 10968 10966 10965 10964 10963 10961 10960 10959 10957 10956 10955 10954 10953 10952 10951 10950 10949 10947 10946 10945 10943 10941 10940 10937 10936 10934 10932 10930 10927 10925 10922 10919 10916 10913
11006 11005 11005 11005 11005 11005 11005 11005 11005 11006 11006 11007 11007 11007 11007 11007 11007 11006 11005 11005 11004 11003 11002 11002 11001 11001 11000 10999 10998 10997 10996 10995 10995 10993 10992 10990 10989 10988 10987 10986 10985 10984 10982 10980 10979 10977 10976 10975 10973 10971 10969 10968 10966 10965 10963 10962 10961 10959 10958 10957 10956 10955 10953 10952 10951 10950 10949 10948 10947 10946 10945 10944 10942 10940 10938 10936 10934 10932 10930 10927 10925 10922 10919 10916 10913
11007 11007 11007 11007 11007 11007 11006 11006 11007 11007 11008 11008 11009 11009 11009 11009 11009 11008 11007 11006 11006 11005 11004 11003 11003 11002 11001 11000 10999 10998 10997 10996 10995 10993 10992 10991 10990 10989 10988 10987 10985 10984 10982 10981 10979 10977 10976 10974 10972 10970 10969 10967 10965 10964 10962 10961 10960 10958 10957 10956 10955 10954 10953 10951 10950 10949 10949 10948 10947 10946 10945 10944 10942 10940 10938 10936 10934 10932 10930 10927 10925 10922 10919 10916 10913
11008 11008 11008 11008 11008 11008 11008 11008 11008 11008 11009 11009 11010 11010 11010 11010 11010 11010 11009 11008 11007 11007 11006 11005 11004 11003 11002 11001 11000 10999 10997 10996 10995 10994 10992 10991 10990 10989 10988 10987 10985 10983 10982 10980 10978 10977 10975 10974 10971 10969 10968 10966 10964 10962 10961 10959 10958 10957 10956 10955 10954 10953 10951 10950 10949 10948 10948 10947 10946 10945 10944 10943 10942 10940 10939 10937 10935 10932 10930 10927 10925 10922 10919 10916 10913
11009 11009 11009 11009 11009 11009 11009 11009 11010 11010 11010 11010 11010 11011 11011 11011 11011 11010 11010 11009 11009 11008 11007 11006 11005 11004 11003 11002 11001 11000 10998 10997 10996 10995 10993 10992 10990 10989 10988 10986 10984 10982 10981 10979 10977 10976 10974 10972 10970 10968 10966 10964 10962 10960 10959 10957 10956 10955 10954 10953 10952 10951 10950 10949 10948 10947 10946 10946 10945 10944 10943 10943 10941 10940 10938 10937 10935 10932 10930 10927 10925 10922 10919 10917 10913
11010 11010 11010 11010 11010 11010 11010 11010 11011 11011 11011 11011 11011 11011 11011 11011 11011 11011 11011 11010 11010 11009 11008 11007 11006 11005 11004 11003 11002 11001 10999 10998 10996 10995 10994 10992 10991 10989 10987 10985 10983 10981 10980 10978 10976 10974 10972 10970 10968 10966 10964 10962 10960 10958 10957 10955 10954 10953 10952 10951 10950 10949 10948 10947 10947 10946 10945 10944 10944 10943 10942 10942 10941 10939 10938 10936 10934 10932 10930 10927 10925 10922 10919 10916 10913
11010 11011 11011 11011 11011 11011 11011 11011 11011 11012 11012 11012 11012 11012 11012 11012 11012 11012 11011 11011 11011 11010 11009 11008 11007 11006 11005 11003 11002 11001 10999 10998 10997 10996 10995 10993 10991 10990 10988 10986 10984 10982 10980 10978 10975 10973 10970 10968 10966 10964 10962 10960 10958 10956 10955 10953 10952 10951 10950 10949 10948 10947 10946 10945 10945 10944 10944 10943 10942 10941 10941 10941 10940 10939 10937 10935 10933 10931 10929 10927 10925 10922 10919 10916 10913
11011 11011 11012 11012 11012 11012 11012 11012 11012 11012 11013 11013 11014 11013 11013 11013 11013 11012 11012 11012 11011 11011 11010 11009 11008 11007 11005 11004 11003 11001 11000 10999 10997 10996 10995 10994 10992 10990 10988 10986 10984 10982 10979 10977 10974 10972 10969 10967 10965 10963 10961 10959 10957 10955 10953 10951 10950 10949 10948 10947 10946 10945 10944 10943 10943 10942 10942 10941 10940 10940 10940 10939 10939 10937 10936 10934 10932 10931 10929 10927 10924 10921 10919 10916 10913
11011 11012 11012 11012 11012 11012 11013 11013 11013 11013 11014 11014 11014 11014 11014 11014 11014 11013 11013 11012 11012 11012 11011 11010 11009 11007 11006 11005 11004 11002 11001 10999 10998 10997 10995 10993 10992 10990 10988 10986 10984 10981 10978 10976 10973 10971 10968 10966 10964 10961 10959 10957 10955 10953 10951 10949 10948 10947 10946 10945 10943 10942 10941 10941 10940 10940 10939 10939 10939 10938 10938 10938 10937 10936 10935 10933 10932 10930 10928 10926 10924 10921 10919 10915 10912
11010 11011 11012 11013 11013 11013 11013 11014 11014 11014 11014 11015 11015 11015 11015 11014 11014 11014 11014 11013 11013 11012 11011 11010 11009 11008 11007 11006 11004 11003 11002 11000 10999 10997 10995 10994 10992 10990 10987 10985 10983 10980 10977 10975 10972 10970 10968 10965 10963 10960 10958 10956 10954 10952 10950 10948 10946 10945 10944 10943 10941 10940 10939 10938 10937 10937 10937 10937 10937 10937 10937 10936 10936 10935 10934 10932 10930 10929 10927 10925 10923 10921 10918 10915 10912
11010 11011 11012 11012 11013 11013 11014 11014 11014 11015 11015 11015 11015 11015 11015 11015 11015 11014 11014 11014 11013 11012 11012 11011 11010 11009 11007 11006 11005 11003 11002 11001 10999 10997 10996 10994 10991 10989 10987 10984 10981 10979 10976 10974 10972 10969 10967 10965 10962 10960 10958 10956 10954 10952 10950 10947 10945 10944 10942 10941 10939 10937 10936 10935 10935 10935 10935 10935 10935 10935 10935 10935 10935 10934 10932 10931 10929 10928 10926 10925 10922 10920 10918 10915 10912
11009 11010 11011 11012 11013 11013 11014 11014 11014 11015 11015 11016 11016 11016 11015 11015 11015 11015 11015 11014 11013 11013 11012 11011 11010 11009 11008 11006 11005 11004 11002 11001 10999 10997 10996 10994 10992 10989 10986 10984 10981 10978 10976 10974 10972 10969 10967 10964 10962 10960 10958 10955 10953 10951 10949 10946 10944 10942 10940 10938 10936 10935 10934 10933 10932 10932 10933 10933 10934 10934 10934 10934 10934 10933 10931 10930 10928 10927 10926 10924 10922 10920 10917 10915 10913
11009 11009 11010 11012 11013 11013 11014 11014 11014 11015 11016 11016 11016 11016 11016 11016 11016 11015 11015 11015 11014 11013 11012 11011 11010 11009 11008 11006 11005 11004 11002 11001 10999 10997 10995 10993 10991 10989 10986 10983 10980 10978 10976 10974 10972 10969 10967 10965 10962 10960 10958 10955 10953 10950 10947 10944 10942 10939 10937 10936 10934 10933 10932 10931 10931 10930 10931 10931 10932 10933 10933 10933 10932 10932 10930 10929 10928 10926 10925 10923 10921 10919 10917 10915 10913
11008 11008 11009 11011 11012 11013 11014 11014 11015 11015 11015 11016 11016 11016 11016 11016 11016 11016 11015 11015 11014 11013 11012 11012 11011 11009 11008 11006 11005 11004 11002 11001 10999 10997 10995 10993 10991 10988 10986 10983 10980 10978 10975 10974 10971 10969 10967 10965 10962 10960 10957 10954 10951 10948 10944 10941 10939 10937 10935 10933 10932 10931 10930 10929 10929 10929 10929 10930 10931 10931 10931 10931 10931 10931 10930 10929 10927 10926 10924 10923 10921 10919 10917 10915 10912
11007 11008 11009 11010 11011 11012 11013 11014 11014 11015 11015 11016 11016 11016 11016 11016 11016 11015 11015 11014 11014 11013 11012 11012 11011 11010 11008 11007 11005 11003 11002 11000 10998 10996 10994 10992 10990 10987 10985 10982 10980 10977 10975 10973 10971 10968 10966 10964 10961 10958 10955 10952 10948 10944 10941 10938 10936 10934 10932 10931 10930 10929 10928 10927 10927 10927 10928 10929 10930 10930 10930 10931 10930 10930 10929 10928 10927 10926 10924 10923 10921 10919 10917 10915 10912
11006 11007 11008 11009 11010 11011 11012 11013 11014 11014 11015 11015 11015 11015 11015 11015 11015 11015 11015 11014 11013 11013 11012 11011 11011 11009 11008 11006 11005 11003 11001 10999 10997 10996 10994 10992 10989 10987 10984 10981 10979 10977 10975 10972 10970 10967 10964 10962 10959 10956 10953 10950 10946 10942 10939 10936 10934 10932 10930 10929 10928 10927 10926 10926 10926 10926 10927 10928 10929 10930 10930 10930 10930 10930 10929 10928 10927 10925 10924 10923 10921 10919 10917 10915 10912
11004 11005 11007 11008 11009 11009 11010 11011 11013 11013 11014 11014 11014 11014 11014 11014 11014 11014 11014 11013 11013 11012 11012 11011 11010 11009 11007 11005 11004 11002 11000 10998 10996 10995 10993 10991 10989 10986 10983 10980 10978 10976 10974 10971 10968 10965 10963 10960 10957 10955 10952 10949 10946 10943 10940 10937 10934 10932 10930 10928 10926 10925 10924 10924 10924 10925 10926 10928 10929 10930 10930 10930 10930 10929 10929 10928 10926 10925 10924 10922 10921 10919 10917 10914 10911
11002 11004 11005 11006 11007 11008 11009 11010 11011 11012 11013 11013 11013 11013 11013 11013 11013 11013 11013 11012 11012 11012 11011 11010 11009 11008 11006 11004 11002 11001 10999 10997 10996 10994 10992 10990 10988 10985 10982 10980 10977 10975 10973 10970 10968 10965 10962 10960 10957 10954 10951 10949 10947 10944 10941 10938 10935 10932 10930 10928 10926 10924 10923 10923 10923 10923 10925 10927 10929 10930 10930 10930 10930 10929 10928 10927 10926 10925 10923 10922 10920 10918 10916 10913 10910
11000 11002 11003 11004 11006 11007 11008 11009 11010 11011 11011 11012 11012 11012 11012 11012 11012 11012 11012 11011 11011 11011 11010 11009 11008 11007 11005 11003 11002 10999 10997 10996 10995 10993 10992 10990 10987 10984 10982 10979 10977 10975 10973 10970 10967 10965 10962 10960 10957 10954 10951 10949 10947 10944 10941 10938 10935 10933 10930 10929 10926 10925 10923 10923 10923 10924 10925 10927 10929 10930 10930 10930 10929 10929 10928 10927 10926 10924 10923 10921 10919 10917 10915 10912 10909
10999 11000 11001 11003 11004 11005 11006 11007 11008 11009 11010 11011 11011 11011 11011 11012 11011 11011 11011 11010 11010 11009 11009 11008 11007 11006 11004 11002 11001 10999 10997 10995 10993 10992 10991 10989 10986 10984 10981 10979 10977 10974 10972 10969 10967 10965 10962 10960 10957 10954 10951 10949 10947 10945 10942 10939 10936 10934 10931 10929 10927 10925 10924 10924 10924 10925 10927 10929 10930 10931 10931 10930 10929 10928 10927 10926 10925 10923 10922 10920 10918 10916 10914 10911 10908
10997 10999 11000 11001 11002 11004 11005 11006 11007 11007 11008 11009 11009 11010 11010 11010 11010 11010 11010 11009 11009 11008 11007 11007 11006 11004 11002 11001 10999 10998 10996 10994 10993 10991 10990 10988 10986 10983 10981 10979 10976 10974 10972 10969 10967 10964 10962 10960 10957 10954 10951 10948 10946 10944 10942 10940 10937 10935 10932 10930 10929 10927 10926 10926 10927 10928 10929 10930 10931 10931 10930 10930 10929 10927 10926 10925 10923 10922 10920 10918 10916 10915 10912 10910 10907
10995 10997 10998 11000 11001 11002 11003 11004 11005 11006 11006 11007 11008 11008 11009 11009 11009 11009 11009 11008 11008 11007 11006 11005 11004 11003 11001 10999 10998 10996 10995 10993 10992 10990 10989 10987 10984 10982 10980 10978 10976 10974 10972 10969 10967 10965 10962 10960 10957 10954 10950 10947 10945 10943 10942 10939 10938 10936 10934 10932 10931 10929 10929 10929 10929 10930 10931 10931 10931 10930 10929 10929 10927 10926 10925 10923 10921 10920 10918 10916 10914 10912 10910 10908 10906
10993 10995 10997 10998 10999 11001 11002 11002 11003 11004 11005 11005 11006 11006 11007 11007 11007 11007 11007 11007 11007 11006 11005 11004 11003 11001 11000 10998 10996 10995 10993 10992 10991 10989 10988 10986 10983 10981 10979 10977 10976 10974 10972 10970 10967 10965 10963 10961 10958 10954 10951 10947 10945 10943 10941 10940 10938 10936 10935 10933 10932 10931 10931 10931 10931 10931 10931 10931 10930 10930 10929 10927 10926 10925 10923 10922 10920 10918 10916 10914 10912 10910 10908 10906 10904
10991 10993 10994 10996 10997 10999 11000 11000 11001 11002 11003 11004 11004 11004 11005 11005 11005 11006 11006 11006 11005 11004 11003 11002 11001 11000 10998 10997 10995 10994 10992 10991 10989 10988 10986 10984 10982 10980 10978 10977 10975 10973 10972 10969 10967 10965 10963 10961 10959 10956 10952 10949 10946 10944 10942 10941 10938 10936 10935 10934 10933 10933 10932 10932 10932 10932 10931 10931 10930 10929 10928 10927 10925 10924 10923 10921 10919 10917 10915 10913 10910 10908 10906 10905 10903
10989 10990 10992 10994 10995 10996 10997 10998 10999 11000 11001 11002 11002 11003 11003 11003 11003 11004 11004 11004 11003 11002 11001 11000 10999 10998 10997 10996 10994 10992 10991 10989 10987 10986 10984 10982 10980 10978 10977 10976 10974 10973 10971 10969 10967 10965 10963 10962 10960 10957 10953 10950 10947 10946 10944 10942 10940 10938 10937 10935 10934 10934 10933 10933 10932 10931 10931 10930 10929 10928 10927 10926 10925 10923 10922 10921 10918 10916 10914 10912 10909 10906 10904 10903 10901
10986 10988 10990 10991 10992 10994 10995 10996 10997 10998 10999 11000 11000 11001 11001 11001 11001 11001 11001 11001 11001 11000 10999 10998 10997 10996 10995 10994 10993 10991 10990 10988 10986 10985 10983 10981 10978 10977 10975 10974 10973 10971 10969 10967 10966 10964 10963 10961 10960 10958 10955 10951 10949 10947 10946 10944 10942 10941 10939 10938 10936 10935 10934 10933 10932 10930 10929 10929 10928 10928 10926 10925 10924 10922 10921 10919 10917 10914 10912 10910 10907 10904 10902 10900 10898
10983 10985 10987 10988 10989 10990 10992 10993 10994 10995 10996 10998 10998 10999 10999 10999 10999 10999 10999 10999 10998 10997 10996 10995 10995 10994 10993 10992 10991 10989 10988 10986 10985 10984 10982 10980 10978 10976 10975 10973 10972 10970 10968 10966 10964 10963 10962 10961 10959 10958 10956 10953 10950 10949 10947 10945 10944 10942 10940 10939 10937 10936 10935 10934 10932 10930 10928 10927 10926 10927 10926 10924 10922 10920 10918 10917 10915 10911 10909 10907 10904 10902 10899 10896 10894
10981 10983 10984 10985 10986 10987 10989 10990 10991 10992 10993 10995 10995 10996 10996 10996 10996 10996 10996 10996 10995 10995 10994 10993 10992 10992 10991 10990 10989 10987 10986 10984 10983 10982 10981 10979 10977 10976 10975 10973 10971 10970 10968 10965 10964 10963 10962 10961 10959 10958 10956 10954 10951 10950 10948 10946 10944 10942 10940 10939 10937 10935 10934 10933 10932 10931 10929 10926 10925 10924 10923 10921 10920 10918 10916 10914 10912 10909 10906 10904 10901 10899 10896 10894 10892
10978 10980 10981 10982 10983 10984 10986 10987 10988 10989 10990 10991 10992 10993 10993 10994 10994 10993 10993 10993 10993 10992 10991 10991 10990 10989 10988 10987 10986 10985 10984 10982 10981 10980 10979 10977 10976 10975 10974 10973 10971 10969 10967 10965 10963 10962 10961 10961 10959 10957 10956 10954 10952 10949 10948 10946 10944 10942 10940 10938 10936 10934 10932 10931 10931 10931 10929 10926 10923 10922 10920 10918 10917 10916 10914 10911 10909 10906 10903 10901 10899 10896 10894 10892 10889
10975 10976 10977 10978 10979 10981 10982 10983 10984 10985 10987 10988 10989 10990 10990 10991 10991 10991 10990 10990 10990 10989 10989 10988 10988 10987 10986 10985 10984 10983 10981 10980 10978 10977 10976 10975 10973 10973 10972 10971 10969 10968 10966 10963 10962 10961 10960 10959 10958 10956 10954 10952 10951 10949 10947 10945 10943 10941 10939 10937 10936 10934 10932 10929 10928 10928 10927 10925 10922 10920 10918 10917 10915 10912 10910 10908 10905 10902 10900 10898 10896 10893 10891 10889 10887
10971 10972 10973 10974 10976 10978 10978 10979 10980 10982 10983 10984 10985 10986 10987 10987 10987 10987 10987 10987 10987 10986 10986 10985 10985 10984 10983 10982 10982 10980 10979 10977 10976 10974 10973 10971 10970 10970 10969 10969 10967 10965 10964 10961 10960 10959 10958 10957 10957 10955 10952 10950 10949 10948 10946 10944 10942 10940 10938 10936 10935 10933 10931 10929 10927 10925 10922 10920 10919 10917 10915 10915 10915 10911 10906 10904 10902 10898 10895 10894 10892 10890 10888 10886 10884
10967 10968 10968 10970 10972 10974 10974 10975 10976 10978 10979 10980 10981 10982 10982 10983 10983 10983 10983 10983 10983 10982 10982 10982 10981 10981 10980 10980 10979 10978 10976 10975 10973 10972 10971 10969 10968 10967 10966 10966 10964 10963 10962 10960 10958 10957 10956 10955 10954 10953 10951 10949 10947 10946 10946 10944 10941 10938 10937 10936 10935 10933 10931 10928 10923 10917 10912 10911 10915 10916 10912 10909 10910 10908 10902 10899 10897 10893 10890 10888 10887 10886 10883 10881 10879
10961 10962 10964 10966 10968 10969 10970 10971 10972 10973 10974 10975 10976 10977 10978 10978 10978 10978 10979 10979 10979 10979 10978 10978 10977 10977 10977 10976 10976 10975 10973 10972 10971 10970 10968 10967 10965 10964 10963 10963 10962 10960 10960 10959 10957 10955 10954 10953 10951 10950 10949 10948 10946 10945 10944 10943 10940 10938 10936 10935 10935 10935 10931 10922 10910 10903 10902 10905 10911 10914 10908 10903 10904 10902 10896 10893 10891 10887 10884 10883 10882 10880 10879 10876 10874
10956 10957 10959 10961 10963 10964 10965 10967 10968 10968 10969 10971 10972 10972 10973 10973 10973 10973 10974 10975 10975 10974 10974 10974 10973 10973 10973 10973 10972 10971 10970 10969 10968 10967 10965 10964 10962 10961 10960 10960 10959 10958 10958 10958 10956 10953 10952 10950 10949 10948 10947 10945 10944 10942 10941 10941 10938 10936 10934 10933 10934 10932 10924 10911 10900 10894 10895 10899 10904 10906 10901 10896 10897 10895 10890 10888 10886 10882 10880 10879 10878 10877 10875 10872 10870
10951 10952 10954 10955 10957 10959 10961 10962 10963 10963 10965 10966 10967 10968 10968 10968 10968 10968 10969 10970 10970 10970 10969 10969 10969 10969 10969 10969 10969 10968 10967 10966 10965 10964 10962 10961 10959 10958 10957 10957 10956 10955 10955 10955 10953 10951 10950 10947 10947 10946 10944 10942 10941 10939 10940 10939 10936 10935 10934 10929 10927 10923 10914 10905 10898 10892 10888 10890 10897 10900 10894 10888 10890 10889 10885 10883 10881 10878 10876 10875 10874 10874 10872 10870 10867
10946 10947 10948 10950 10952 10954 10955 10956 10957 10958 10960 10961 10962 10963 10963 10963 10963 10963 10964 10965 10965 10965 10965 10965 10965 10965 10965 10965 10965 10965 10964 10963 10962 10961 10959 10957 10956 10955 10954 10953 10952 10951 10951 10952 10950 10949 10947 10945 10944 10943 10941 10939 10937 10936 10936 10936 10935 10934 10930 10922 10918 10916 10909 10902 10897 10891 10883 10881 10889 10894 10888 10882 10884 10885 10882 10879 10876 10874 10873 10871 10869 10869 10868 10867 10865
10940 10941 10943 10945 10946 10948 10949 10950 10951 10953 10955 10956 10957 10958 10958 10958 10958 10958 10959 10959 10959 10960 10961 10961 10960 10960 10960 10960 10961 10960 10960 10960 10959 10958 10956 10954 10952 10951 10950 10949 10948 10946 10946 10947 10946 10945 10944 10941 10940 10938 10937 10935 10933 10931 10931 10931 10932 10929 10922 10915 10915 10914 10908 10901 10898 10894 10884 10877 10881 10886 10881 10876 10878 10878 10877 10877 10872 10868 10868 10867 10865 10862 10861 10861 10860
10935 10936 10938 10939 10939 10941 10942 10944 10945 10947 10949 10951 10952 10952 10953 10954 10953 10953 10953 10953 10953 10955 10957 10956 10955 10955 10955 10956 10956 10955 10956 10956 10955 10954 10953 10951 10949 10948 10947 10946 10943 10941 10941 10942 10940 10938 10937 10936 10934 10932 10932 10930 10928 10927 10925 10925 10926 10923 10916 10912 10911 10908 10903 10899 10897 10895 10888 10877 10877 10881 10876 10872 10872 10870 10868 10870 10868 10862 10860 10860 10858 10856 10854 10854 10853